"Pseudo-MPEC" for P22oLCz

Created 2026 Aug 11 13:35:15 UT using Find_Orb

Click here for an explanation of pseudo-MPECs

 
 Astrometry: 
     P22oLCz*0C2026 08 03.29056516 09 50.750-08 32 14.67   ~838o 21.22wXNEOCPF52
     P22oLCz 0C2026 08 03.30156416 09 49.622-08 33 32.14   ~838o 21.39wXNEOCPF52
     P22oLCz 0C2026 08 03.31253416 09 48.514-08 34 49.15   ~838o 21.35wXNEOCPF52
     P22oLCz 0C2026 08 03.39705516 09 40.001-08 44 45.88   ~840Z 20.89GVNEOCPF51
     P22oLCz 0C2026 08 03.39770316 09 39.947-08 44 50.55   ~840Z 20.93GVNEOCPF51
     P22oLCz KC2026 08 04.09708416 08 37.72 -10 07 59.5    ~8435 20.8 GVNEOCPH21
     P22oLCz KC2026 08 04.09901616 08 37.55 -10 08 13.3    ~8435 21.1 GVNEOCPH21
     P22oLCz KC2026 08 04.10094516 08 37.34 -10 08 27.0    ~8435 21.0 GVNEOCPH21
     P22oLCz KC2026 08 04.10287316 08 37.14 -10 08 41.0    ~8435 21.5 GVNEOCPH21
     P22oLCz 0B2026 08 04.78239516 07 36.654-11 29 33.83   ~84Mo 21.0 GWNEOCPM21
     P22oLCz 0B2026 08 04.81219616 07 33.655-11 33 09.13   ~84Mo       WNEOCPM21
     P22oLCz KC2026 08 07.82963116 03 12.449-17 42 43.63   ~87L5 20.89GXNEOCPM57
     P22oLCz KC2026 08 07.83763116 03 11.690-17 43 42.64   ~87L5       XNEOCPM57
     P22oLCz KC2026 08 07.84624516 03 10.906-17 44 45.96   ~87L5 21.19GXNEOCPM57
     P22oLCz KC2026 08 07.85280116 03 10.270-17 45 35.28   ~87L5 20.92GXNEOCPM57

Station data:
(F51) Pan-STARRS 1, Haleakala  (N20.707234 W156.255910)  US/Hawaii.
   Observers J. Herman, T. Lowe, P. Minguez, A. Schultz, I. Smith. Measurers
   K. Chambers, T. de Boer, J. Fairlamb, H. Gao, M. Huber, C.-C. Lin, E.
   Magnier, Y. Ramanjooloo, R. Wainscoat, R. Weryk. 1.8-m Ritchey-Chrétien +
   CCD.
(F52) Pan-STARRS 2, Haleakala  (N20.707382 W156.255910)  US/Hawaii.
   Observers J. Herman, T. Lowe, P. Minguez, A. Schultz, I. Smith. Measurers
   K. Chambers, T. de Boer, J. Fairlamb, H. Gao, M. Huber, C.-C. Lin, E.
   Magnier, Y. Ramanjooloo, R. Wainscoat, R. Weryk. 1.8-m Ritchey-Chrétien +
   CCD.
(H21) Astronomical Research Observatory, Westfield  (N39.483054 W87.968270)
   US/Illinois.  Observer R. Holmes. Measurers S. Foglia, L. Buzzi, T.
   Linder, R. Holmes. 0.40-m f/5.32 astrograph + CCD.
(M21) Schiaparelli Southern Observatory, Hakos  (S23.236549 E16.361440)
   Namibia.  Observers A. Aletti, F. Bellini, L. Buzzi, G. Galli. Measurer L.
   Buzzi. 0.36-m f/8.4 reflector + CCD.
(M57) Wide-field Mufara Telescope, Isnello  (N37.868879 E14.020200)  Italy.
   Observer A. Nastasi. 1.00-m f/2.1 reflector + CCD.

Orbital elements:  P22oLCz
   Perihelion 2026 Sep 8.844935 +/- 0.287 TT = 20:16:42.3 (JD 2461292.344935)
Epoch 2026 Aug  7.0 TT = JDT 2461259.5   Earth MOID: 0.0963      AutoNEOCP
M 349.563774556 +/- 0.46            (J2000 ecliptic)
n   0.317742310 +/- 0.0115          Peri.  212.685022 +/- 0.25
a   2.126927485 +/- 0.0514          Node   122.995992 +/- 0.15
e   0.50209013 +/- 0.0113           Incl.   30.350431 +/- 0.32
P   3.10191                H 21.76  G  0.15   U  9.7
q 1.059018166 +/- 0.00162    Q 3.194836804 +/- 0.101
From 15 observations 2026 Aug. 3-7; mean residual 0".46
Residuals in arcseconds: 
260803 F52  .35-  .15-    260804 H21  .65-  .77-    260804 M21  .63+  .60+    
260803 F52  .22-  .01+    260804 H21  .31-  .76-    260807 M57  .06-  .15-    
260803 F52  .10+  .42+    260804 H21  .56-  .68-    260807 M57  .15-  .03+    
260803 F51  .19+  .01+    260804 H21  .66-  .90-    260807 M57  .19+  .43+    
260803 F51  .33+  .08-    260804 M21  .36+  .89+    260807 M57  .14-  .41-    

Ephemerides (geocentric):
Date (UTC) HH   RA             Dec           delta  r     elong  mag " sig PA
---- --------  ------------   ------------  ------ ------ -----  --- --------
2026 08 11 14  15 58 08.562   -25 28 25.01  .26898 1.1099 104.0 21.4 1.17   8
2026 08 11 15  15 58 05.301   -25 33 34.75  .26901 1.1097 104.0 21.4 1.18   8
2026 08 11 16  15 58 02.043   -25 38 44.43  .26904 1.1096 104.0 21.4 1.19   8
2026 08 11 17  15 57 58.788   -25 43 54.06  .26907 1.1094 103.9 21.4 1.20   8
2026 08 11 18  15 57 55.535   -25 49 03.63  .26910 1.1093 103.9 21.4 1.21   8
2026 08 11 19  15 57 52.285   -25 54 13.14  .26914 1.1091 103.9 21.4 1.22   7
2026 08 11 20  15 57 49.037   -25 59 22.58  .26917 1.1090 103.8 21.4 1.23   7
2026 08 11 21  15 57 45.792   -26 04 31.97  .26920 1.1089 103.8 21.4 1.24   7
2026 08 11 22  15 57 42.550   -26 09 41.29  .26923 1.1087 103.8 21.4 1.25   7
2026 08 11 23  15 57 39.310   -26 14 50.54  .26927 1.1086 103.7 21.4 1.26   7
2026 08 12 00  15 57 36.073   -26 19 59.73  .26930 1.1084 103.7 21.4 1.27   7
2026 08 12 01  15 57 32.839   -26 25 08.86  .26934 1.1083 103.6 21.4 1.27   7
2026 08 12 02  15 57 29.607   -26 30 17.91  .26937 1.1081 103.6 21.4 1.28   6
2026 08 12 03  15 57 26.378   -26 35 26.89  .26941 1.1080 103.6 21.4 1.29   6
2026 08 12 04  15 57 23.151   -26 40 35.80  .26944 1.1079 103.5 21.4 1.30   6
2026 08 12 05  15 57 19.927   -26 45 44.64  .26948 1.1077 103.5 21.4 1.31   6
2026 08 12 06  15 57 16.706   -26 50 53.41  .26952 1.1076 103.5 21.4 1.32   6
2026 08 12 07  15 57 13.487   -26 56 02.10  .26956 1.1074 103.4 21.4 1.33   6
2026 08 12 08  15 57 10.271   -27 01 10.72  .26959 1.1073 103.4 21.4 1.34   5
2026 08 12 09  15 57 07.057   -27 06 19.25  .26963 1.1072 103.4 21.4 1.35   5
2026 08 12 10  15 57 03.846   -27 11 27.71  .26967 1.1070 103.3 21.4 1.36   5
2026 08 12 11  15 57 00.638   -27 16 36.09  .26971 1.1069 103.3 21.4 1.37   5
2026 08 12 12  15 56 57.432   -27 21 44.39  .26975 1.1067 103.2 21.4 1.38   5
2026 08 12 13  15 56 54.229   -27 26 52.60  .26980 1.1066 103.2 21.4 1.39   5
2026 08 12 14  15 56 51.028   -27 32 00.74  .26984 1.1065 103.2 21.4 1.40   4
2026 08 12 15  15 56 47.830   -27 37 08.78  .26988 1.1063 103.1 21.4 1.41   4
2026 08 12 16  15 56 44.634   -27 42 16.74  .26992 1.1062 103.1 21.4 1.42   4
2026 08 12 17  15 56 41.441   -27 47 24.62  .26997 1.1060 103.1 21.4 1.43   4
2026 08 12 18  15 56 38.251   -27 52 32.40  .27001 1.1059 103.0 21.4 1.43   4
2026 08 12 19  15 56 35.063   -27 57 40.10  .27005 1.1058 103.0 21.4 1.44   4
2026 08 12 20  15 56 31.878   -28 02 47.70  .27010 1.1056 103.0 21.4 1.45   3
2026 08 12 21  15 56 28.695   -28 07 55.21  .27014 1.1055 102.9 21.4 1.46   3
2026 08 12 22  15 56 25.515   -28 13 02.63  .27019 1.1053 102.9 21.4 1.47   3
2026 08 12 23  15 56 22.337   -28 18 09.96  .27024 1.1052 102.8 21.4 1.48   3
2026 08 13 00  15 56 19.162   -28 23 17.19  .27028 1.1051 102.8 21.4 1.49   3
2026 08 13 01  15 56 15.989   -28 28 24.32  .27033 1.1049 102.8 21.4 1.50   3
2026 08 13 02  15 56 12.819   -28 33 31.35  .27038 1.1048 102.7 21.4 1.51   2
2026 08 13 03  15 56 09.652   -28 38 38.29  .27043 1.1046 102.7 21.4 1.52   2
2026 08 13 04  15 56 06.487   -28 43 45.12  .27048 1.1045 102.7 21.4 1.52   2
2026 08 13 05  15 56 03.325   -28 48 51.85  .27053 1.1044 102.6 21.4 1.53   2
2026 08 13 06  15 56 00.165   -28 53 58.48  .27058 1.1042 102.6 21.4 1.54   2
2026 08 13 07  15 55 57.007   -28 59 05.01  .27063 1.1041 102.6 21.4 1.55   1
2026 08 13 08  15 55 53.853   -29 04 11.43  .27068 1.1040 102.5 21.4 1.56   1
2026 08 13 09  15 55 50.700   -29 09 17.74  .27073 1.1038 102.5 21.4 1.57   1
2026 08 13 10  15 55 47.550   -29 14 23.95  .27078 1.1037 102.4 21.4 1.58   1
2026 08 13 11  15 55 44.403   -29 19 30.05  .27084 1.1036 102.4 21.4 1.59   1
2026 08 13 12  15 55 41.258   -29 24 36.04  .27089 1.1034 102.4 21.4 1.59   1
2026 08 13 13  15 55 38.116   -29 29 41.92  .27095 1.1033 102.3 21.4 1.60   0